Satellite-Ground Cal/Val Site Overpasses Predictions

Prediction of Satellite NPP Overpassing Cal/Val Site: Antarctic Dome C

Ground Cal/Val Site Location: Latitude: -75.10, Longitude: 123.35; Satellite-Ground Site NADIR distance within 100 km.

Table of predicted overpasses for the next 14.0 days since TLE Epoch: 11/5/2014
Interval Starting Time Ending Time Minimum Distance Time Minimum Distance (km)
1 11/05/2014 15:03:25 11/05/2014 15:03:54 11/05/2014 15:03:40 19.74
2 11/06/2014 14:44:44 11/06/2014 14:44:58 11/06/2014 14:44:51 87.42
3 11/07/2014 07:46:15 11/07/2014 07:46:42 11/07/2014 07:46:29 38.14
4 11/08/2014 07:27:29 11/08/2014 07:27:49 11/08/2014 07:27:39 71.89
5 11/10/2014 15:09:44 11/10/2014 15:10:08 11/10/2014 15:09:56 56.80
6 11/11/2014 14:50:53 11/11/2014 14:51:18 11/11/2014 14:51:06 52.37
7 11/12/2014 07:52:35 11/12/2014 07:52:54 11/12/2014 07:52:45 73.55
8 11/13/2014 07:33:42 11/13/2014 07:34:09 11/13/2014 07:33:56 34.48
9 11/15/2014 15:16:08 11/15/2014 15:16:16 11/15/2014 15:16:12 94.71
10 11/16/2014 14:57:07 11/16/2014 14:57:36 11/16/2014 14:57
